KOREASAT 5A

Last updated on Tue Sep 16 2025 00:02:49 GMT+0000 (Coordinated Universal Time)

1 42984U 17067A 25258.54840436 -.00000375 00000+0 00000+0 0 9998 2 42984 0.0178 257.0692 0001237 307.9360 100.3288 1.00271990 28772
UTC large
Height (km)
Speed (km/s)
/
Latitude / Longitude
Inclination (degrees)
Orbital Period (minutes)
Azimuth
Elevation
Range (km)
Doppler Factor

Next 0 passes for location: London (51.5072 / 0.1276)

Sorry there are no passes over London.